CSN652 UNNT-UEEE

Flight info

Callsign CSN652
Flight time 3h 48m
Altitude 35000
Route OGATI1M OGATI DCT ABMEL B926 KESED B151 KRN A180 OLDEP B155 LEPRI LEPRI6C
Aircraft B738/M-SDE2E3FGHIRWXY/LB1

Departure

Time 2026-04-23 01:20
Airport Novosibirsk Tolmachevo Airport (UNNT)

Arrival

Time 2026-04-23 05:08
Airport Platon Oyunsky Yakutsk International Airport (UEEE)
Time Latitude Longitude Altitude Speed Heading
2026-04-23 01:09 55.01036 82.66753 372 ft 0 kts 170°
2026-04-23 01:10 55.01037 82.66752 372 ft 2 kts 170°
2026-04-23 01:10 55.01062 82.66751 372 ft 4 kts 181°
2026-04-23 01:10 55.01085 82.66746 372 ft 4 kts 157°
2026-04-23 01:11 55.01100 82.66724 372 ft 4 kts 83°
2026-04-23 01:11 55.01092 82.66681 372 ft 4 kts 71°
2026-04-23 01:11 55.01089 82.66667 372 ft 2 kts 77°
2026-04-23 01:14 55.01093 82.66691 372 ft 8 kts 77°
2026-04-23 01:14 55.01098 82.66789 372 ft 8 kts 89°
2026-04-23 01:15 55.01089 82.66884 372 ft 8 kts 104°
2026-04-23 01:15 55.01083 82.66977 372 ft 8 kts 89°
2026-04-23 01:15 55.01089 82.67067 372 ft 7 kts 81°
2026-04-23 01:15 55.01097 82.67153 372 ft 7 kts 81°
2026-04-23 01:16 55.01103 82.67237 372 ft 7 kts 84°
2026-04-23 01:16 55.01107 82.67320 372 ft 7 kts 87°
2026-04-23 01:16 55.01111 82.67401 372 ft 7 kts 81°
2026-04-23 01:16 55.01134 82.67469 372 ft 7 kts 41°
2026-04-23 01:17 55.01171 82.67513 372 ft 6 kts 33°
2026-04-23 01:17 55.01208 82.67555 372 ft 6 kts 27°
2026-04-23 01:17 55.01246 82.67591 372 ft 6 kts 31°
2026-04-23 01:17 55.01283 82.67630 372 ft 7 kts 30°
2026-04-23 01:18 55.01331 82.67678 372 ft 9 kts 31°
2026-04-23 01:18 55.01390 82.67742 371 ft 11 kts 32°
2026-04-23 01:18 55.01466 82.67776 370 ft 13 kts 324°
2026-04-23 01:18 55.01477 82.67629 370 ft 14 kts 261°
2026-04-23 01:19 55.01439 82.67207 372 ft 66 kts 261°
2026-04-23 01:19 55.01333 82.66039 372 ft 126 kts 261°
2026-04-23 01:19 55.01168 82.64233 376 ft 175 kts 260°
2026-04-23 01:19 55.00961 82.61953 685 ft 195 kts 261°
2026-04-23 01:20 55.00770 82.59744 1818 ft 173 kts 254°
2026-04-23 01:20 55.00647 82.58390 2335 ft 171 kts 255°
2026-04-23 01:20 55.00461 82.56357 2843 ft 169 kts 256°
2026-04-23 01:20 55.00272 82.54225 2991 ft 192 kts 262°
2026-04-23 01:21 55.00613 82.51846 3022 ft 219 kts 300°
2026-04-23 01:21 55.01862 82.50119 3012 ft 245 kts 338°
2026-04-23 01:21 55.03579 82.49877 3017 ft 253 kts
2026-04-23 01:21 55.05335 82.50216 2996 ft 254 kts
2026-04-23 01:22 55.07087 82.50504 2981 ft 253 kts
2026-04-23 01:22 55.08858 82.50755 2972 ft 257 kts
2026-04-23 01:22 55.10640 82.51153 2980 ft 258 kts 19°
2026-04-23 01:22 55.12119 82.52787 2988 ft 250 kts 51°
2026-04-23 01:23 55.12959 82.55389 3017 ft 246 kts 76°
2026-04-23 01:23 55.13342 82.58287 3008 ft 249 kts 83°
2026-04-23 01:23 55.13637 82.61285 2994 ft 251 kts 83°
2026-04-23 01:23 55.13928 82.64277 2989 ft 247 kts 85°
2026-04-23 01:24 55.13785 82.67167 2990 ft 235 kts 116°
2026-04-23 01:24 55.12883 82.69427 3031 ft 225 kts 143°
2026-04-23 01:24 55.11538 82.70789 3339 ft 225 kts 164°
2026-04-23 01:24 55.10008 82.71367 3913 ft 225 kts 173°
2026-04-23 01:25 55.08444 82.71758 4484 ft 228 kts 173°
2026-04-23 01:25 55.06876 82.72144 4931 ft 228 kts 173°
2026-04-23 01:25 55.05303 82.72545 4971 ft 228 kts 173°
2026-04-23 01:25 55.03725 82.72956 4998 ft 231 kts 173°
2026-04-23 01:26 55.02140 82.73374 5001 ft 232 kts 173°
2026-04-23 01:26 55.00539 82.73806 5047 ft 235 kts 172°
2026-04-23 01:26 54.98922 82.74258 5526 ft 236 kts 172°
2026-04-23 01:26 54.97316 82.74708 5969 ft 235 kts 172°
2026-04-23 01:27 54.95690 82.75163 5976 ft 236 kts 172°
2026-04-23 01:27 54.94070 82.75617 5991 ft 235 kts 173°
2026-04-23 01:27 54.92466 82.76220 5983 ft 237 kts 158°
2026-04-23 01:27 54.91170 82.77986 5999 ft 242 kts 128°
2026-04-23 01:28 54.90527 82.80737 6055 ft 258 kts 99°
2026-04-23 01:28 54.90620 82.83980 6299 ft 279 kts 83°
2026-04-23 01:28 54.91004 82.87305 6734 ft 287 kts 79°
2026-04-23 01:28 54.91447 82.90750 7318 ft 289 kts 80°
2026-04-23 01:29 54.91866 82.94136 7912 ft 291 kts 80°
2026-04-23 01:29 54.92275 82.97603 8492 ft 295 kts 81°
2026-04-23 01:29 54.92678 83.01128 9116 ft 298 kts 81°
2026-04-23 01:29 54.93074 83.04678 9731 ft 300 kts 84°
2026-04-23 01:30 54.93172 83.08336 10086 ft 310 kts 94°
2026-04-23 01:30 54.93032 83.12196 10242 ft 329 kts 97°
2026-04-23 01:30 54.92835 83.16302 10381 ft 348 kts 97°
2026-04-23 01:30 54.92643 83.20611 10531 ft 366 kts 96°
2026-04-23 01:31 54.92476 83.25088 10906 ft 375 kts 95°
2026-04-23 01:31 54.92323 83.29586 11432 ft 378 kts 95°
2026-04-23 01:31 54.92171 83.34162 12028 ft 381 kts 95°
2026-04-23 01:31 54.91994 83.38782 12626 ft 384 kts 95°
2026-04-23 01:32 54.91796 83.43455 13222 ft 388 kts 96°
2026-04-23 01:32 54.91589 83.48144 13778 ft 392 kts 95°
2026-04-23 01:32 54.91376 83.52901 14284 ft 396 kts 95°
2026-04-23 01:32 54.91158 83.57734 14799 ft 401 kts 95°
2026-04-23 01:33 54.90938 83.62601 15294 ft 406 kts 95°
2026-04-23 01:33 54.90719 83.67458 15823 ft 410 kts 95°
2026-04-23 01:33 54.90494 83.72415 16342 ft 414 kts 95°
2026-04-23 01:33 54.90263 83.77446 16847 ft 419 kts 95°
2026-04-23 01:34 54.90029 83.82512 17343 ft 423 kts 95°
2026-04-23 01:34 54.89789 83.87646 17832 ft 427 kts 95°
2026-04-23 01:34 54.89546 83.92804 18294 ft 431 kts 95°
2026-04-23 01:34 54.89298 83.98036 18732 ft 435 kts 95°
2026-04-23 01:35 54.89045 84.03287 19169 ft 438 kts 95°
2026-04-23 01:35 54.88788 84.08600 19610 ft 441 kts 95°
2026-04-23 01:35 54.88526 84.13934 20043 ft 444 kts 95°
2026-04-23 01:35 54.88265 84.19233 20463 ft 448 kts 95°
2026-04-23 01:36 54.87995 84.24640 20851 ft 452 kts 95°
2026-04-23 01:36 54.87720 84.30093 21266 ft 455 kts 95°
2026-04-23 01:36 54.87441 84.35590 21668 ft 458 kts 95°
2026-04-23 01:36 54.87159 84.41116 22056 ft 461 kts 94°
2026-04-23 01:37 54.87280 84.46686 22401 ft 464 kts 76°
2026-04-23 01:37 54.88376 84.51925 22777 ft 462 kts 57°
2026-04-23 01:37 54.90287 84.56365 23179 ft 457 kts 40°
2026-04-23 01:37 54.92795 84.59659 23537 ft 449 kts 23°
2026-04-23 01:38 54.95682 84.61610 23855 ft 442 kts
2026-04-23 01:38 54.98703 84.62274 24163 ft 435 kts 353°
2026-04-23 01:38 55.01674 84.61593 24486 ft 429 kts 342°
2026-04-23 01:38 55.04545 84.60433 24802 ft 430 kts 342°
2026-04-23 01:39 55.07467 84.59258 25108 ft 432 kts 342°
2026-04-23 01:39 55.10494 84.58741 25360 ft 446 kts 360°
2026-04-23 01:39 55.13548 84.59990 25676 ft 460 kts 18°
2026-04-23 01:39 55.16334 84.62873 25992 ft 472 kts 36°
2026-04-23 01:40 55.18540 84.67182 26284 ft 482 kts 54°
2026-04-23 01:40 55.19947 84.72558 26548 ft 490 kts 72°
2026-04-23 01:40 55.20629 84.78430 26833 ft 494 kts 81°
2026-04-23 01:40 55.20965 84.84427 27104 ft 497 kts 85°
2026-04-23 01:41 55.21167 84.90482 27360 ft 499 kts 86°
2026-04-23 01:41 55.21356 84.96576 27616 ft 501 kts 85°
2026-04-23 01:41 55.21584 85.02663 27855 ft 503 kts 84°
2026-04-23 01:41 55.21858 85.08710 28080 ft 505 kts 83°
2026-04-23 01:42 55.22172 85.14844 28367 ft 505 kts 83°
2026-04-23 01:42 55.22506 85.20971 28756 ft 504 kts 83°
2026-04-23 01:42 55.22846 85.27070 29153 ft 502 kts 83°
2026-04-23 01:42 55.23184 85.33163 29509 ft 502 kts 83°
2026-04-23 01:43 55.23517 85.39249 29801 ft 502 kts 83°
2026-04-23 01:43 55.23842 85.45329 30095 ft 501 kts 83°
2026-04-23 01:43 55.24162 85.51406 30386 ft 500 kts 83°
2026-04-23 01:43 55.24477 85.57484 30662 ft 500 kts 83°
2026-04-23 01:44 55.24788 85.63559 30921 ft 500 kts 83°
2026-04-23 01:44 55.25096 85.69621 31186 ft 500 kts 83°
2026-04-23 01:44 55.25402 85.75703 31453 ft 499 kts 83°
2026-04-23 01:44 55.25703 85.81769 31722 ft 499 kts 83°
2026-04-23 01:45 55.26001 85.87827 31960 ft 499 kts 83°
2026-04-23 01:45 55.26293 85.93822 32197 ft 499 kts 83°
2026-04-23 01:45 55.26585 85.99878 32439 ft 498 kts 83°
2026-04-23 01:45 55.26876 86.05935 32681 ft 498 kts 82°
2026-04-23 01:46 55.27164 86.11991 32920 ft 498 kts 82°
2026-04-23 01:46 55.27511 86.18026 33152 ft 497 kts 81°
2026-04-23 01:46 55.27922 86.24059 33362 ft 497 kts 79°
2026-04-23 01:46 55.28358 86.30097 33587 ft 497 kts 79°
2026-04-23 01:47 55.28792 86.36110 33810 ft 497 kts 79°
2026-04-23 01:47 55.29208 86.42045 34060 ft 495 kts 79°
2026-04-23 01:47 55.29616 86.48031 34291 ft 494 kts 80°
2026-04-23 01:47 55.30013 86.54025 34472 ft 494 kts 80°
2026-04-23 01:48 55.30402 86.60018 34613 ft 495 kts 80°
2026-04-23 01:48 55.30788 86.66020 34783 ft 494 kts 80°
2026-04-23 01:48 55.31551 86.78056 34856 ft 496 kts 80°
2026-04-23 01:49 55.32304 86.90122 34872 ft 495 kts 80°
2026-04-23 01:49 55.33039 87.02042 34878 ft 493 kts 80°
2026-04-23 01:50 55.33764 87.14027 34886 ft 492 kts 80°
2026-04-23 01:50 55.34475 87.25975 34887 ft 491 kts 80°
2026-04-23 01:51 55.35174 87.37916 34895 ft 491 kts 80°
2026-04-23 01:51 55.35862 87.49878 34907 ft 491 kts 80°
2026-04-23 01:52 55.36540 87.61823 34915 ft 491 kts 80°
2026-04-23 01:52 55.37218 87.73720 34919 ft 492 kts 80°
2026-04-23 01:53 55.37892 87.85721 34937 ft 493 kts 80°
2026-04-23 01:53 55.38552 87.97752 34940 ft 494 kts 81°
2026-04-23 01:54 55.39198 88.09789 34936 ft 494 kts 81°
2026-04-23 01:54 55.39830 88.21785 34956 ft 495 kts 81°
2026-04-23 01:55 55.40453 88.33857 34970 ft 496 kts 81°
2026-04-23 01:55 55.41067 88.45959 34968 ft 496 kts 81°
2026-04-23 01:56 55.41667 88.58073 34980 ft 496 kts 81°
2026-04-23 01:56 55.42253 88.70131 34986 ft 497 kts 81°
2026-04-23 01:57 55.42831 88.82290 34996 ft 498 kts 81°
2026-04-23 01:57 55.43401 88.94461 35007 ft 498 kts 81°
2026-04-23 01:58 55.43971 89.06609 35008 ft 497 kts 81°
2026-04-23 01:58 55.44529 89.18692 35020 ft 497 kts 81°
2026-04-23 01:59 55.45075 89.30865 35026 ft 497 kts 81°
2026-04-23 01:59 55.45606 89.43024 35033 ft 497 kts 81°
2026-04-23 02:00 55.46124 89.55189 35039 ft 497 kts 81°
2026-04-23 02:00 55.46627 89.67264 35042 ft 496 kts 81°
2026-04-23 02:01 55.47120 89.79395 35055 ft 496 kts 81°
2026-04-23 02:01 55.47601 89.91512 35059 ft 496 kts 81°
2026-04-23 02:02 55.48070 90.03644 35057 ft 496 kts 81°
2026-04-23 02:02 55.48451 90.13734 35063 ft 495 kts 81°
2026-04-23 02:03 55.48898 90.25872 35065 ft 496 kts 81°
2026-04-23 02:03 55.49333 90.38011 35066 ft 496 kts 81°
2026-04-23 02:04 55.49755 90.50161 35070 ft 496 kts 81°
2026-04-23 02:04 55.50165 90.62307 35065 ft 496 kts 81°
2026-04-23 02:05 55.50563 90.74404 35066 ft 496 kts 81°
2026-04-23 02:05 55.50949 90.86566 35072 ft 496 kts 81°
2026-04-23 02:06 55.51323 90.98746 35068 ft 495 kts 81°
2026-04-23 02:06 55.51671 91.10889 35065 ft 496 kts 83°
2026-04-23 02:07 55.51229 91.23119 35070 ft 501 kts 91°
2026-04-23 02:07 55.50503 91.35355 35069 ft 501 kts 91°
2026-04-23 02:08 55.49790 91.47507 35063 ft 500 kts 91°
2026-04-23 02:08 55.49102 91.59734 35066 ft 500 kts 90°
2026-04-23 02:09 55.48419 91.71880 35063 ft 500 kts 90°
2026-04-23 02:09 55.47718 91.84096 35060 ft 499 kts 90°
2026-04-23 02:10 55.47005 91.96275 35066 ft 499 kts 91°
2026-04-23 02:10 55.46278 92.08443 35062 ft 499 kts 91°
2026-04-23 02:11 55.45544 92.20539 35073 ft 499 kts 91°
2026-04-23 02:11 55.44794 92.32699 35060 ft 499 kts 91°
2026-04-23 02:12 55.44032 92.44838 35078 ft 498 kts 91°
2026-04-23 02:12 55.43266 92.56951 35080 ft 498 kts 91°
2026-04-23 02:13 55.42503 92.69070 35079 ft 497 kts 91°
2026-04-23 02:13 55.41729 92.81160 35098 ft 497 kts 91°
2026-04-23 02:14 55.40942 92.93199 35116 ft 497 kts 91°
2026-04-23 02:14 55.40136 93.05325 35106 ft 498 kts 91°
2026-04-23 02:15 55.38906 93.23454 35126 ft 497 kts 91°
2026-04-23 02:16 55.38072 93.35550 35128 ft 498 kts 91°
2026-04-23 02:16 55.37226 93.47636 35135 ft 498 kts 91°
2026-04-23 02:17 55.36368 93.59725 35148 ft 497 kts 91°
2026-04-23 02:17 55.35502 93.71743 35143 ft 498 kts 92°
2026-04-23 02:18 55.34616 93.83845 35146 ft 498 kts 92°
2026-04-23 02:18 55.33722 93.95922 35145 ft 498 kts 92°
2026-04-23 02:19 55.32814 94.08008 35153 ft 498 kts 92°
2026-04-23 02:19 55.31902 94.19984 35164 ft 498 kts 92°
2026-04-23 02:20 55.30972 94.32039 35166 ft 497 kts 92°
2026-04-23 02:20 55.30028 94.44082 35164 ft 497 kts 92°
2026-04-23 02:21 55.29074 94.56124 35170 ft 497 kts 92°
2026-04-23 02:21 55.28109 94.68132 35177 ft 497 kts 92°
2026-04-23 02:22 55.27165 94.80124 35180 ft 494 kts 88°
2026-04-23 02:22 55.27536 94.91927 35180 ft 478 kts 71°
2026-04-23 02:23 55.29487 95.02787 35195 ft 467 kts 61°
2026-04-23 02:23 55.31789 95.13471 35193 ft 468 kts 61°
2026-04-23 02:24 55.34061 95.24247 35193 ft 470 kts 62°
2026-04-23 02:24 55.36282 95.35038 35194 ft 472 kts 62°
2026-04-23 02:25 55.38504 95.45951 35196 ft 473 kts 62°
2026-04-23 02:25 55.40714 95.56859 35196 ft 474 kts 62°
2026-04-23 02:26 55.42927 95.67839 35196 ft 474 kts 62°
2026-04-23 02:26 55.45111 95.78734 35193 ft 474 kts 62°
2026-04-23 02:27 55.47296 95.89699 35200 ft 473 kts 62°
2026-04-23 02:27 55.49470 96.00662 35202 ft 472 kts 62°
2026-04-23 02:28 55.51632 96.11627 35203 ft 472 kts 62°
2026-04-23 02:28 55.53760 96.22494 35200 ft 471 kts 62°
2026-04-23 02:29 55.55884 96.33417 35206 ft 470 kts 62°
2026-04-23 02:29 55.58003 96.44389 35213 ft 470 kts 62°
2026-04-23 02:30 55.60106 96.55331 35227 ft 469 kts 62°
2026-04-23 02:30 55.62181 96.66203 35221 ft 469 kts 62°
2026-04-23 02:31 55.64262 96.77153 35230 ft 469 kts 62°
2026-04-23 02:31 55.66338 96.88145 35231 ft 470 kts 62°
2026-04-23 02:32 55.68400 96.99133 35235 ft 470 kts 63°
2026-04-23 02:32 55.70454 97.10141 35241 ft 470 kts 63°
2026-04-23 02:33 55.72487 97.21098 35243 ft 471 kts 63°
2026-04-23 02:33 55.74525 97.32146 35246 ft 471 kts 63°
2026-04-23 02:34 55.76553 97.43214 35251 ft 471 kts 63°
2026-04-23 02:34 55.78573 97.54300 35257 ft 471 kts 63°
2026-04-23 02:35 55.80583 97.65400 35244 ft 471 kts 63°
2026-04-23 02:35 55.82580 97.76506 35257 ft 471 kts 63°
2026-04-23 02:36 55.84559 97.87561 35267 ft 471 kts 63°
2026-04-23 02:36 55.86528 97.98712 35264 ft 472 kts 64°
2026-04-23 02:37 55.88456 98.09893 35271 ft 472 kts 64°
2026-04-23 02:37 55.90369 98.21086 35276 ft 472 kts 64°
2026-04-23 02:38 55.92280 98.32311 35270 ft 473 kts 64°
2026-04-23 02:38 55.94169 98.43480 35276 ft 473 kts 64°
2026-04-23 02:39 55.96060 98.54719 35271 ft 473 kts 64°
2026-04-23 02:39 55.97945 98.65997 35275 ft 473 kts 64°
2026-04-23 02:40 55.99820 98.77293 35275 ft 473 kts 65°
2026-04-23 02:40 56.01680 98.88570 35276 ft 474 kts 65°
2026-04-23 02:41 56.03525 98.99832 35277 ft 474 kts 65°
2026-04-23 02:41 56.05373 99.11190 35273 ft 475 kts 65°
2026-04-23 02:42 56.07208 99.22549 35273 ft 475 kts 65°
2026-04-23 02:42 56.09011 99.34000 35256 ft 477 kts 68°
2026-04-23 02:43 56.10515 99.45606 35267 ft 480 kts 69°
2026-04-23 02:43 56.11947 99.57219 35259 ft 480 kts 69°
2026-04-23 02:44 56.13417 99.68892 35255 ft 479 kts 69°
2026-04-23 02:44 56.14886 99.80493 35250 ft 479 kts 69°
2026-04-23 02:45 56.16356 99.92182 35242 ft 480 kts 69°
2026-04-23 02:45 56.17819 100.03882 35241 ft 479 kts 69°
2026-04-23 02:46 56.19031 100.13591 35233 ft 480 kts 69°
2026-04-23 02:46 56.20479 100.25298 35224 ft 480 kts 70°
2026-04-23 02:47 56.21915 100.37023 35217 ft 480 kts 70°
2026-04-23 02:47 56.23339 100.48750 35208 ft 480 kts 70°
2026-04-23 02:48 56.24752 100.60500 35206 ft 481 kts 70°
2026-04-23 02:48 56.26150 100.72266 35198 ft 480 kts 70°
2026-04-23 02:49 56.27537 100.84033 35197 ft 481 kts 70°
2026-04-23 02:49 56.28907 100.95726 35189 ft 481 kts 70°
2026-04-23 02:50 56.30286 101.07519 35184 ft 480 kts 70°
2026-04-23 02:50 56.31650 101.19309 35175 ft 480 kts 71°
2026-04-23 02:51 56.32999 101.31109 35176 ft 480 kts 71°
2026-04-23 02:51 56.34328 101.42833 35167 ft 480 kts 71°
2026-04-23 02:52 56.35652 101.54639 35166 ft 480 kts 71°
2026-04-23 02:52 56.36986 101.66436 35164 ft 478 kts 69°
2026-04-23 02:53 56.39266 101.77487 35168 ft 465 kts 58°
2026-04-23 02:53 56.41983 101.88082 35166 ft 464 kts 58°
2026-04-23 02:54 56.44667 101.98727 35171 ft 465 kts 58°
2026-04-23 02:54 56.47286 102.09374 35175 ft 466 kts 59°
2026-04-23 02:55 56.49902 102.20114 35174 ft 466 kts 59°
2026-04-23 02:55 56.52513 102.30887 35179 ft 467 kts 59°
2026-04-23 02:56 56.55121 102.41678 35175 ft 467 kts 59°
2026-04-23 02:56 56.57703 102.52416 35182 ft 467 kts 60°
2026-04-23 02:57 56.60295 102.63266 35184 ft 468 kts 60°
2026-04-23 02:57 56.62872 102.74113 35189 ft 468 kts 60°
2026-04-23 02:58 56.65442 102.84998 35199 ft 468 kts 60°
2026-04-23 02:58 56.67991 102.95837 35202 ft 469 kts 60°
2026-04-23 02:59 56.70542 103.06757 35207 ft 469 kts 61°
2026-04-23 02:59 56.73087 103.17705 35204 ft 469 kts 61°
2026-04-23 03:00 56.75622 103.28659 35218 ft 468 kts 61°
2026-04-23 03:00 56.78137 103.39543 35222 ft 468 kts 61°
2026-04-23 03:01 56.80680 103.50490 35229 ft 468 kts 61°
2026-04-23 03:01 56.83210 103.61450 35233 ft 468 kts 62°
2026-04-23 03:02 56.85728 103.72422 35236 ft 467 kts 62°
2026-04-23 03:02 56.88184 103.83363 35236 ft 468 kts 63°
2026-04-23 03:03 56.90623 103.94390 35238 ft 467 kts 63°
2026-04-23 03:03 56.93051 104.05435 35231 ft 467 kts 63°
2026-04-23 03:04 56.95474 104.16488 35234 ft 467 kts 63°
2026-04-23 03:04 56.97883 104.27533 35237 ft 467 kts 63°
2026-04-23 03:05 57.00287 104.38611 35233 ft 467 kts 63°
2026-04-23 03:05 57.02678 104.49693 35230 ft 466 kts 64°
2026-04-23 03:06 57.05040 104.60700 35238 ft 466 kts 64°
2026-04-23 03:06 57.07410 104.71805 35230 ft 466 kts 64°
2026-04-23 03:07 57.09773 104.82929 35232 ft 466 kts 64°
2026-04-23 03:07 57.12125 104.94077 35236 ft 466 kts 64°
2026-04-23 03:08 57.14453 105.05163 35233 ft 466 kts 65°
2026-04-23 03:08 57.16785 105.16334 35235 ft 467 kts 65°
2026-04-23 03:09 57.19107 105.27517 35230 ft 467 kts 65°
2026-04-23 03:09 57.21415 105.38706 35237 ft 466 kts 65°
2026-04-23 03:10 57.23717 105.49903 35230 ft 466 kts 65°
2026-04-23 03:10 57.26145 105.60983 35234 ft 465 kts 64°
2026-04-23 03:11 57.28609 105.72051 35226 ft 465 kts 64°
2026-04-23 03:11 57.31030 105.83150 35228 ft 465 kts 65°
2026-04-23 03:12 57.33437 105.94213 35225 ft 465 kts 65°
2026-04-23 03:12 57.35846 106.05333 35224 ft 465 kts 65°
2026-04-23 03:13 57.38247 106.16487 35217 ft 465 kts 65°
2026-04-23 03:13 57.40633 106.27645 35214 ft 465 kts 65°
2026-04-23 03:14 57.43006 106.38810 35214 ft 464 kts 65°
2026-04-23 03:14 57.45356 106.49918 35213 ft 465 kts 66°
2026-04-23 03:15 57.47708 106.61099 35211 ft 464 kts 66°
2026-04-23 03:15 57.50052 106.72306 35210 ft 464 kts 66°
2026-04-23 03:16 57.52388 106.83536 35203 ft 465 kts 66°
2026-04-23 03:16 57.55850 107.00299 35201 ft 464 kts 67°
2026-04-23 03:17 57.58158 107.11553 35199 ft 464 kts 67°
2026-04-23 03:17 57.60456 107.22819 35193 ft 464 kts 67°
2026-04-23 03:18 57.62735 107.34041 35191 ft 464 kts 67°
2026-04-23 03:18 57.65019 107.45329 35189 ft 464 kts 68°
2026-04-23 03:19 57.67285 107.56600 35190 ft 463 kts 68°
2026-04-23 03:19 57.69540 107.67891 35190 ft 463 kts 68°
2026-04-23 03:20 57.71779 107.79177 35186 ft 463 kts 68°
2026-04-23 03:20 57.74006 107.90471 35187 ft 462 kts 68°
2026-04-23 03:21 57.76226 108.01781 35183 ft 462 kts 68°
2026-04-23 03:21 57.78727 108.12834 35183 ft 461 kts 61°
2026-04-23 03:22 57.81743 108.23433 35176 ft 460 kts 60°
2026-04-23 03:22 57.84744 108.33963 35175 ft 460 kts 60°
2026-04-23 03:23 57.87705 108.44633 35176 ft 460 kts 61°
2026-04-23 03:23 57.90637 108.55343 35176 ft 459 kts 62°
2026-04-23 03:24 57.93535 108.65985 35170 ft 459 kts 62°
2026-04-23 03:24 57.96448 108.76720 35169 ft 459 kts 62°
2026-04-23 03:25 57.99358 108.87465 35164 ft 459 kts 62°
2026-04-23 03:25 58.02255 108.98199 35162 ft 459 kts 62°
2026-04-23 03:26 58.05125 109.08891 35161 ft 459 kts 63°
2026-04-23 03:26 58.08001 109.19670 35145 ft 459 kts 63°
2026-04-23 03:27 58.10866 109.30459 35154 ft 459 kts 63°
2026-04-23 03:27 58.13724 109.41273 35156 ft 459 kts 63°
2026-04-23 03:28 58.16573 109.52109 35143 ft 460 kts 63°
2026-04-23 03:28 58.18937 109.61142 35149 ft 460 kts 64°
2026-04-23 03:29 58.22230 109.73776 35144 ft 460 kts 64°
2026-04-23 03:29 58.25059 109.84692 35126 ft 460 kts 64°
2026-04-23 03:30 58.27401 109.93770 35142 ft 460 kts 64°
2026-04-23 03:30 58.30226 110.04765 35135 ft 460 kts 64°
2026-04-23 03:31 58.33022 110.15709 35131 ft 459 kts 65°
2026-04-23 03:31 58.35788 110.26582 35129 ft 459 kts 65°
2026-04-23 03:32 58.38559 110.37530 35124 ft 458 kts 65°
2026-04-23 03:32 58.41317 110.48491 35124 ft 457 kts 65°
2026-04-23 03:33 58.44059 110.59446 35127 ft 457 kts 65°
2026-04-23 03:33 58.46773 110.70331 35126 ft 456 kts 66°
2026-04-23 03:34 58.49492 110.81271 35125 ft 455 kts 65°
2026-04-23 03:34 58.52211 110.92220 35124 ft 455 kts 66°
2026-04-23 03:35 58.54915 111.03183 35126 ft 455 kts 66°
2026-04-23 03:35 58.57594 111.14108 35130 ft 455 kts 66°
2026-04-23 03:36 58.60273 111.25091 35129 ft 455 kts 66°
2026-04-23 03:36 58.62947 111.36114 35135 ft 455 kts 66°
2026-04-23 03:37 58.65616 111.47161 35125 ft 455 kts 66°
2026-04-23 03:37 58.68282 111.58161 35133 ft 455 kts 66°
2026-04-23 03:38 58.70994 111.69178 35134 ft 456 kts 66°
2026-04-23 03:38 58.73697 111.80215 35128 ft 456 kts 66°
2026-04-23 03:39 58.76384 111.91283 35129 ft 456 kts 67°
2026-04-23 03:39 58.79040 112.02298 35117 ft 456 kts 67°
2026-04-23 03:40 58.81718 112.13438 35120 ft 456 kts 68°
2026-04-23 03:40 58.84268 112.24632 35122 ft 455 kts 69°
2026-04-23 03:41 58.86722 112.35831 35113 ft 455 kts 69°
2026-04-23 03:41 58.89183 112.47102 35108 ft 455 kts 69°
2026-04-23 03:42 58.91647 112.58376 35105 ft 454 kts 70°
2026-04-23 03:42 58.94103 112.69643 35095 ft 453 kts 70°
2026-04-23 03:43 58.96542 112.80893 35097 ft 453 kts 70°
2026-04-23 03:43 58.98972 112.92172 35099 ft 452 kts 70°
2026-04-23 03:44 59.01387 113.03448 35081 ft 453 kts 70°
2026-04-23 03:44 59.03777 113.14661 35074 ft 452 kts 70°
2026-04-23 03:45 59.06170 113.25953 35063 ft 452 kts 71°
2026-04-23 03:45 59.08556 113.37277 35067 ft 451 kts 71°
2026-04-23 03:46 59.10915 113.48523 35061 ft 451 kts 71°
2026-04-23 03:46 59.13272 113.59833 35057 ft 451 kts 71°
2026-04-23 03:47 59.15619 113.71167 35052 ft 450 kts 72°
2026-04-23 03:47 59.17954 113.82495 35055 ft 450 kts 72°
2026-04-23 03:48 59.20304 113.93827 35046 ft 450 kts 71°
2026-04-23 03:48 59.22741 114.05104 35052 ft 450 kts 71°
2026-04-23 03:49 59.25161 114.16310 35050 ft 450 kts 71°
2026-04-23 03:49 59.27576 114.27612 35046 ft 450 kts 71°
2026-04-23 03:50 59.29971 114.38924 35046 ft 450 kts 72°
2026-04-23 03:50 59.32357 114.50263 35049 ft 449 kts 72°
2026-04-23 03:51 59.34729 114.61594 35045 ft 449 kts 72°
2026-04-23 03:51 59.37087 114.72928 35044 ft 449 kts 72°
2026-04-23 03:52 59.39422 114.84205 35049 ft 448 kts 72°
2026-04-23 03:52 59.41759 114.95564 35061 ft 448 kts 73°
2026-04-23 03:53 59.44091 115.06962 35061 ft 448 kts 73°
2026-04-23 03:53 59.46390 115.18270 35049 ft 448 kts 73°
2026-04-23 03:54 59.48695 115.29651 35043 ft 447 kts 73°
2026-04-23 03:54 59.50990 115.41054 35040 ft 446 kts 73°
2026-04-23 03:55 59.53250 115.52355 35033 ft 446 kts 74°
2026-04-23 03:55 59.55511 115.63735 35037 ft 444 kts 74°
2026-04-23 03:56 59.57750 115.75085 35031 ft 443 kts 74°
2026-04-23 03:56 59.59973 115.86410 35034 ft 442 kts 74°
2026-04-23 03:57 59.62184 115.97737 35037 ft 441 kts 75°
2026-04-23 03:57 59.64378 116.09048 35043 ft 440 kts 75°
2026-04-23 03:58 59.66559 116.20370 35040 ft 440 kts 75°
2026-04-23 03:58 59.68732 116.31702 35034 ft 440 kts 75°
2026-04-23 03:59 59.70885 116.42991 35036 ft 440 kts 76°
2026-04-23 03:59 59.73040 116.54366 35039 ft 440 kts 76°
2026-04-23 04:00 59.75185 116.65746 35051 ft 440 kts 76°
2026-04-23 04:00 59.77298 116.77029 35044 ft 438 kts 76°
2026-04-23 04:01 59.79408 116.88351 35036 ft 436 kts 76°
2026-04-23 04:01 59.81498 116.99647 35037 ft 435 kts 77°
2026-04-23 04:02 59.83561 117.10860 35032 ft 433 kts 77°
2026-04-23 04:02 59.85619 117.22124 35029 ft 432 kts 77°
2026-04-23 04:03 59.87663 117.33369 35040 ft 432 kts 77°
2026-04-23 04:03 59.89703 117.44649 35038 ft 431 kts 78°
2026-04-23 04:04 59.91683 117.55846 35033 ft 431 kts 78°
2026-04-23 04:04 59.93659 117.67153 35037 ft 431 kts 78°
2026-04-23 04:05 59.95628 117.78476 35035 ft 432 kts 78°
2026-04-23 04:05 59.97583 117.89786 35030 ft 432 kts 78°
2026-04-23 04:06 59.99535 118.01139 35034 ft 432 kts 79°
2026-04-23 04:06 60.01475 118.12501 35032 ft 432 kts 79°
2026-04-23 04:07 60.03412 118.23909 35037 ft 432 kts 79°
2026-04-23 04:07 60.05326 118.35251 35032 ft 432 kts 79°
2026-04-23 04:08 60.07239 118.46661 35032 ft 432 kts 79°
2026-04-23 04:08 60.09139 118.58062 35033 ft 432 kts 79°
2026-04-23 04:09 60.11039 118.69536 35040 ft 432 kts 79°
2026-04-23 04:09 60.12913 118.80931 35033 ft 432 kts 79°
2026-04-23 04:10 60.14790 118.92417 35035 ft 432 kts 80°
2026-04-23 04:10 60.16655 119.03902 35044 ft 433 kts 80°
2026-04-23 04:11 60.18516 119.15448 35037 ft 435 kts 80°
2026-04-23 04:11 60.20375 119.27057 35027 ft 437 kts 80°
2026-04-23 04:12 60.22229 119.38702 35033 ft 437 kts 80°
2026-04-23 04:12 60.24062 119.50299 35029 ft 437 kts 80°
2026-04-23 04:13 60.25898 119.61972 35033 ft 437 kts 80°
2026-04-23 04:13 60.27723 119.73675 35033 ft 437 kts 80°
2026-04-23 04:14 60.29233 119.83413 35038 ft 438 kts 80°
2026-04-23 04:14 60.31043 119.95179 35036 ft 438 kts 80°
2026-04-23 04:15 60.32837 120.06925 35034 ft 438 kts 80°
2026-04-23 04:16 60.35502 120.24538 35033 ft 438 kts 80°
2026-04-23 04:16 60.37274 120.36343 35033 ft 439 kts 80°
2026-04-23 04:17 60.39090 120.48146 35027 ft 443 kts 76°
2026-04-23 04:17 60.41734 120.59571 35029 ft 450 kts 71°
2026-04-23 04:18 60.44498 120.70928 35032 ft 450 kts 71°
2026-04-23 04:18 60.47206 120.82284 35030 ft 450 kts 71°
2026-04-23 04:19 60.49891 120.93732 35028 ft 449 kts 71°
2026-04-23 04:19 60.52573 121.05246 35033 ft 449 kts 71°
2026-04-23 04:20 60.55216 121.16655 35032 ft 449 kts 71°
2026-04-23 04:20 60.57872 121.28168 35035 ft 449 kts 71°
2026-04-23 04:21 60.60452 121.39743 35032 ft 448 kts 73°
2026-04-23 04:21 60.62923 121.51362 35034 ft 447 kts 73°
2026-04-23 04:22 60.65384 121.63023 35032 ft 447 kts 73°
2026-04-23 04:22 60.67830 121.74613 35034 ft 447 kts 73°
2026-04-23 04:23 60.70282 121.86274 35029 ft 447 kts 73°
2026-04-23 04:23 60.72724 121.97943 35029 ft 446 kts 73°
2026-04-23 04:24 60.75157 122.09630 35031 ft 446 kts 73°
2026-04-23 04:24 60.77564 122.21263 35032 ft 446 kts 73°
2026-04-23 04:25 60.79973 122.32972 35026 ft 445 kts 73°
2026-04-23 04:25 60.82370 122.44692 35032 ft 445 kts 74°
2026-04-23 04:26 60.84748 122.56394 35030 ft 445 kts 74°
2026-04-23 04:26 60.87108 122.68064 35031 ft 445 kts 74°
2026-04-23 04:27 60.89477 122.79847 35034 ft 445 kts 74°
2026-04-23 04:27 60.91829 122.91618 35031 ft 445 kts 74°
2026-04-23 04:28 60.95339 123.09316 35034 ft 445 kts 74°
2026-04-23 04:28 60.97665 123.21135 35038 ft 446 kts 74°
2026-04-23 04:29 60.99972 123.32925 35048 ft 446 kts 74°
2026-04-23 04:29 61.02283 123.44804 35040 ft 447 kts 75°
2026-04-23 04:30 61.04581 123.56700 35045 ft 447 kts 75°
2026-04-23 04:30 61.06884 123.68669 35047 ft 447 kts 75°
2026-04-23 04:31 61.09204 123.80634 35055 ft 448 kts 74°
2026-04-23 04:31 61.11520 123.92517 35056 ft 448 kts 74°
2026-04-23 04:32 61.13840 124.04521 35054 ft 449 kts 74°
2026-04-23 04:32 61.16142 124.16534 35056 ft 449 kts 75°
2026-04-23 04:33 61.18439 124.28592 35055 ft 448 kts 75°
2026-04-23 04:33 61.20714 124.40631 35058 ft 448 kts 75°
2026-04-23 04:34 61.22970 124.52627 35063 ft 448 kts 75°
2026-04-23 04:34 61.25226 124.64704 35059 ft 448 kts 75°
2026-04-23 04:35 61.27468 124.76782 35066 ft 448 kts 75°
2026-04-23 04:35 61.29699 124.88876 35065 ft 448 kts 75°
2026-04-23 04:36 61.31921 125.00994 35072 ft 448 kts 75°
2026-04-23 04:36 61.34122 125.13070 35067 ft 448 kts 75°
2026-04-23 04:37 61.36328 125.25258 35075 ft 449 kts 75°
2026-04-23 04:37 61.38523 125.37462 35075 ft 449 kts 75°
2026-04-23 04:38 61.40708 125.49680 35075 ft 449 kts 75°
2026-04-23 04:38 61.42873 125.61868 35082 ft 449 kts 75°
2026-04-23 04:39 61.45057 125.74250 34733 ft 456 kts 76°
2026-04-23 04:39 61.46153 125.80503 34188 ft 456 kts 76°
2026-04-23 04:39 61.47248 125.86760 33468 ft 456 kts 76°
2026-04-23 04:40 61.48335 125.92980 32793 ft 455 kts 76°
2026-04-23 04:40 61.49401 125.99098 32297 ft 450 kts 76°
2026-04-23 04:40 61.50468 126.05235 31809 ft 446 kts 76°
2026-04-23 04:40 61.51519 126.11308 31332 ft 441 kts 76°
2026-04-23 04:41 61.52557 126.17334 30865 ft 437 kts 76°
2026-04-23 04:41 61.53580 126.23297 30418 ft 433 kts 76°
2026-04-23 04:41 61.54591 126.29207 29943 ft 428 kts 75°
2026-04-23 04:41 61.55588 126.35059 29453 ft 424 kts 75°
2026-04-23 04:42 61.56572 126.40847 28998 ft 418 kts 75°
2026-04-23 04:42 61.57540 126.46568 28545 ft 413 kts 75°
2026-04-23 04:42 61.58496 126.52229 28097 ft 409 kts 75°
2026-04-23 04:42 61.59441 126.57846 27646 ft 405 kts 75°
2026-04-23 04:43 61.60374 126.63405 27190 ft 401 kts 75°
2026-04-23 04:43 61.61283 126.68841 26765 ft 398 kts 75°
2026-04-23 04:43 61.62194 126.74308 26323 ft 395 kts 75°
2026-04-23 04:43 61.63094 126.79726 25889 ft 392 kts 75°
2026-04-23 04:44 61.63988 126.85125 25459 ft 389 kts 75°
2026-04-23 04:44 61.64873 126.90483 25034 ft 386 kts 75°
2026-04-23 04:44 61.65752 126.95810 24610 ft 384 kts 75°
2026-04-23 04:44 61.66623 127.01104 24201 ft 382 kts 75°
2026-04-23 04:45 61.67489 127.06382 23782 ft 380 kts 75°
2026-04-23 04:45 61.68358 127.11610 23387 ft 376 kts 75°
2026-04-23 04:45 61.69228 127.16790 22957 ft 373 kts 75°
2026-04-23 04:45 61.70088 127.21913 22525 ft 370 kts 75°
2026-04-23 04:46 61.70942 127.27018 22109 ft 367 kts 75°
2026-04-23 04:46 61.71784 127.32075 21685 ft 364 kts 75°
2026-04-23 04:46 61.72616 127.37094 21282 ft 362 kts 75°
2026-04-23 04:46 61.73431 127.42026 20874 ft 360 kts 75°
2026-04-23 04:47 61.74250 127.47005 20468 ft 357 kts 75°
2026-04-23 04:47 61.75064 127.51972 20066 ft 356 kts 75°
2026-04-23 04:47 61.75870 127.56894 19667 ft 354 kts 75°
2026-04-23 04:47 61.76669 127.61793 19269 ft 352 kts 75°
2026-04-23 04:48 61.77465 127.66691 18873 ft 351 kts 75°
2026-04-23 04:48 61.78256 127.71563 18477 ft 350 kts 75°
2026-04-23 04:48 61.79033 127.76365 18050 ft 348 kts 75°
2026-04-23 04:48 61.79813 127.81200 17611 ft 347 kts 75°
2026-04-23 04:49 61.80588 127.86017 17207 ft 344 kts 75°
2026-04-23 04:49 61.81357 127.90805 16807 ft 342 kts 75°
2026-04-23 04:49 61.82121 127.95579 16403 ft 341 kts 75°
2026-04-23 04:49 61.82877 128.00315 15999 ft 339 kts 75°
2026-04-23 04:50 61.83627 128.05024 15617 ft 337 kts 75°
2026-04-23 04:50 61.84372 128.09717 15243 ft 335 kts 75°
2026-04-23 04:50 61.85110 128.14374 14870 ft 333 kts 75°
2026-04-23 04:50 61.85846 128.19031 14498 ft 332 kts 75°
2026-04-23 04:51 61.86574 128.23655 14115 ft 331 kts 75°
2026-04-23 04:51 61.87291 128.28221 13727 ft 330 kts 75°
2026-04-23 04:51 61.88013 128.32832 13295 ft 328 kts 75°
2026-04-23 04:51 61.88730 128.37414 12903 ft 326 kts 75°
2026-04-23 04:52 61.89440 128.41969 12521 ft 324 kts 75°
2026-04-23 04:52 61.90144 128.46492 12143 ft 322 kts 75°
2026-04-23 04:52 61.90842 128.50998 11775 ft 320 kts 75°
2026-04-23 04:52 61.91534 128.55468 11418 ft 318 kts 75°
2026-04-23 04:53 61.92222 128.59935 11041 ft 317 kts 75°
2026-04-23 04:53 61.92903 128.64371 10686 ft 315 kts 75°
2026-04-23 04:53 61.93571 128.68718 10558 ft 305 kts 75°
2026-04-23 04:53 61.94209 128.72876 10401 ft 294 kts 74°
2026-04-23 04:54 61.94832 128.76942 10311 ft 285 kts 74°
2026-04-23 04:54 61.95433 128.80883 10194 ft 276 kts 74°
2026-04-23 04:54 61.96015 128.84697 10102 ft 267 kts 74°
2026-04-23 04:54 61.96777 128.88266 9992 ft 262 kts 63°
2026-04-23 04:55 61.97743 128.91549 9737 ft 260 kts 60°
2026-04-23 04:55 61.98741 128.94738 9471 ft 258 kts 59°
2026-04-23 04:55 61.99734 128.97905 9205 ft 255 kts 59°
2026-04-23 04:55 62.00708 129.01041 8942 ft 253 kts 60°
2026-04-23 04:56 62.01673 129.04174 8658 ft 252 kts 60°
2026-04-23 04:56 62.02611 129.07244 8408 ft 249 kts 60°
2026-04-23 04:56 62.03552 129.10339 8141 ft 248 kts 60°
2026-04-23 04:56 62.04484 129.13418 7883 ft 247 kts 60°
2026-04-23 04:57 62.05408 129.16486 7632 ft 245 kts 60°
2026-04-23 04:57 62.06330 129.19550 7361 ft 244 kts 60°
2026-04-23 04:57 62.07240 129.22586 7104 ft 242 kts 60°
2026-04-23 04:57 62.08145 129.25612 6840 ft 242 kts 61°
2026-04-23 04:58 62.09051 129.28646 6621 ft 242 kts 61°
2026-04-23 04:58 62.09957 129.31687 6335 ft 243 kts 61°
2026-04-23 04:58 62.10868 129.34750 6145 ft 245 kts 61°
2026-04-23 04:58 62.11778 129.37812 6099 ft 243 kts 61°
2026-04-23 04:59 62.12676 129.40837 5707 ft 250 kts 60°
2026-04-23 04:59 62.13599 129.43952 5339 ft 247 kts 60°
2026-04-23 04:59 62.14218 129.46047 5151 ft 244 kts 60°
2026-04-23 04:59 62.15117 129.49083 4874 ft 239 kts 60°
2026-04-23 05:00 62.15989 129.52034 4692 ft 226 kts 60°
2026-04-23 05:00 62.17050 129.55625 4497 ft 205 kts 60°
2026-04-23 05:00 62.17554 129.57336 4324 ft 198 kts 60°
2026-04-23 05:00 62.18287 129.59840 3935 ft 200 kts 60°
2026-04-23 05:01 62.19031 129.62354 3654 ft 195 kts 59°
2026-04-23 05:01 62.19735 129.64756 3464 ft 185 kts 60°
2026-04-23 05:01 62.20405 129.67048 3421 ft 186 kts 60°
2026-04-23 05:01 62.21098 129.69415 3303 ft 188 kts 60°
2026-04-23 05:02 62.21799 129.71815 3219 ft 191 kts 60°
2026-04-23 05:02 62.22505 129.74236 3154 ft 191 kts 60°
2026-04-23 05:02 62.23212 129.76653 3042 ft 190 kts 60°
2026-04-23 05:02 62.23921 129.79082 2849 ft 193 kts 60°
2026-04-23 05:03 62.24449 129.81680 2601 ft 189 kts 86°
2026-04-23 05:03 62.24229 129.84327 2584 ft 183 kts 114°
2026-04-23 05:03 62.23514 129.86637 2558 ft 184 kts 124°
2026-04-23 05:03 62.22772 129.88897 2557 ft 185 kts 123°
2026-04-23 05:04 62.22054 129.91073 2389 ft 176 kts 125°
2026-04-23 05:04 62.21268 129.92949 2250 ft 169 kts 149°
2026-04-23 05:04 62.20119 129.93132 2033 ft 176 kts 196°
2026-04-23 05:04 62.18971 129.92201 2024 ft 175 kts 199°
2026-04-23 05:05 62.17942 129.91036 1973 ft 159 kts 207°
2026-04-23 05:05 62.17025 129.89802 1913 ft 155 kts 210°
2026-04-23 05:05 62.16168 129.88475 1895 ft 151 kts 212°
2026-04-23 05:05 62.15321 129.87101 1929 ft 155 kts 212°
2026-04-23 05:06 62.14478 129.85735 1881 ft 148 kts 212°
2026-04-23 05:06 62.13634 129.84375 1521 ft 148 kts 214°
2026-04-23 05:06 62.12814 129.83062 1076 ft 148 kts 216°
2026-04-23 05:06 62.11984 129.81704 729 ft 150 kts 216°
2026-04-23 05:07 62.11153 129.80387 479 ft 147 kts 216°
2026-04-23 05:07 62.10345 129.79114 328 ft 141 kts 217°
2026-04-23 05:07 62.09683 129.78083 323 ft 80 kts 221°
2026-04-23 05:07 62.09353 129.77555 324 ft 53 kts 217°
2026-04-23 05:08 62.09073 129.77089 328 ft 49 kts 216°
2026-04-23 05:08 62.08810 129.76666 328 ft 47 kts 217°
2026-04-23 05:08 62.08553 129.76252 331 ft 30 kts 226°
2026-04-23 05:08 62.08536 129.76033 329 ft 6 kts 304°
2026-04-23 05:09 62.08564 129.75951 331 ft 7 kts 308°
2026-04-23 05:09 62.08593 129.75869 329 ft 7 kts 306°
2026-04-23 05:09 62.08620 129.75787 330 ft 7 kts 303°
2026-04-23 05:09 62.08644 129.75703 329 ft 7 kts 301°
2026-04-23 05:10 62.08666 129.75619 330 ft 6 kts 300°
2026-04-23 05:10 62.08688 129.75538 332 ft 6 kts 294°
2026-04-23 05:10 62.08690 129.75441 328 ft 7 kts 266°
2026-04-23 05:10 62.08688 129.75342 332 ft 7 kts 269°
2026-04-23 05:11 62.08687 129.75252 332 ft 5 kts 269°
2026-04-23 05:11 62.08687 129.75195 332 ft 3 kts 269°
2026-04-23 05:11 62.08687 129.75191 332 ft 0 kts 269°
2026-04-23 05:11 62.08687 129.75176 332 ft 1 kts 269°
2026-04-23 05:12 62.08687 129.75175 332 ft 0 kts 269°